This demonstration page uses our WeatherBlox Daily Observations layout. Learn more.

Left ArrowRight Arrow

34.74481, -87.66753

Hourly Observations for January 16, 2022

Temp ( °F °C ) Dew Point ( °F °C ) Humidity (%) Winds ( mph kmh ) Pressure ( in mb ) Visibility ( mi km ) Precip ( " mm )
12:02 am 00:02 Cloudy with Rain 44 6.7 41 5 89 89 ENE 14 22 29.77 1008 5 8 0.02 0.51
12:53 am 00:53 Cloudy with Rain 44 6.7 41 5 89 89 NE 8 13 29.74 1007 5 8 0.12 3.05
1:46 am 01:46 Cloudy with Rain 43 6.1 41 5 93 93 NE 12 19 29.73 1007 4 6 0.14 3.56
1:53 am 01:53 Cloudy with Rain 44 6.7 41 5 89 89 NE 12 19 29.70 1006 4 6 0.15 3.81
2:00 am 02:00 Cloudy with Rain 43 6.1 41 5 93 93 ENE 12 19 29.73 1007 5 8 0.01 0.25
2:07 am 02:07 Cloudy with Light Rain 44 6.7 41 5 89 89 ENE 9 15 29.73 1007 5 8 0.02 0.51
2:24 am 02:24 Cloudy with Rain 44 6.7 41 5 89 89 NE 10 17 29.72 1007 4 6 0.05 1.27
2:31 am 02:31 Cloudy with Heavy Rain 43 6.1 41 5 93 93 NE 13 20 29.72 1006 4 6 0.08 2.03
2:53 am 02:53 Cloudy with Heavy Rain 44 6.7 41 5 89 89 NNE 9 15 29.68 1005 3 4 0.16 4.06
2:59 am 02:59 Cloudy with Light Rain 44 6.7 41 5 89 89 NNE 12 19 29.70 1006 5 8 0.01 0.25
3:10 am 03:10 Cloudy 44 6.7 41 5 89 89 NNE 12 19 29.70 1006 8 13 0.01 0.25
3:24 am 03:24 Cloudy with Rain 43 6.1 41 5 93 93 NNE 12 19 29.70 1006 4 6 0.04 1.02
3:33 am 03:33 Cloudy with Light Rain 43 6.1 41 5 93 93 NNE 9 15 29.70 1006 6 10 0.04 1.02
3:39 am 03:39 Cloudy with Light Rain 44 6.7 41 5 89 89 NNE 10 17 29.70 1006 5 8 0.05 1.27
3:53 am 03:53 Cloudy with Light Rain 43 6.1 41 5 93 93 NNE 12 19 29.68 1005 5 8 0.07 1.78
4:13 am 04:13 Cloudy with Rain 43 6.1 40 4.4 89 89 NE 10 17 29.70 1006 4 6 0.05 1.27
4:20 am 04:20 Cloudy with Rain 43 6.1 40 4.4 89 89 NE 15 24 29.69 1005 5 8 0.07 1.78
4:43 am 04:43 Cloudy with Rain 43 6.1 40 4.4 89 89 NE 16 26 29.68 1005 4 6 0.14 3.56
4:53 am 04:53 Cloudy with Heavy Rain 42 5.6 39 3.9 89 89 NNE 15 24 29.66 1004 3 5 0.19 4.83
5:03 am 05:03 Cloudy with Heavy Rain 42 5.6 38 3.3 85 85 NNE 21 33 29.67 1005 4 6 0.06 1.52
5:53 am 05:53 Cloudy with Light Rain 40 4.4 37 2.8 89 89 NNE 17 28 29.65 1004 7 11 0.16 4.06
6:53 am 06:53 Cloudy with Light Rain 39 3.9 36 2.2 89 89 NE 15 24 29.65 1004 8 13 0.05 1.27
7:53 am 07:53 Cloudy with Rain 38 3.3 35 1.7 89 89 NE 13 20 29.66 1004 5 8 0.07 1.78
8:37 am 08:37 Cloudy with Rain 39 3.9 35 1.7 86 86 NE 16 26 29.67 1005 6 10 0.04 1.02
8:53 am 08:53 Cloudy with Light Rain 39 3.9 35 1.7 86 86 NE 15 24 29.65 1004 5 8 0.05 1.27
9:18 am 09:18 Cloudy with Light Rain 39 3.9 36 2.2 89 89 NNE 12 19 29.67 1005 8 13 0.02 0.51
9:53 am 09:53 Cloudy with Rain 39 3.9 36 2.2 89 89 NNE 9 15 29.66 1004 6 10 0.05 1.27
10:12 am 10:12 Cloudy with Rain 39 3.9 36 2.2 89 89 N 7 11 29.69 1005 8 13 0.03 0.76
10:53 am 10:53 Cloudy with Light Snow 37 2.8 34 1.1 89 89 N 7 11 29.67 1005 7 11 0.07 1.78
11:30 am 11:30 Cloudy with Light Rain 37 2.8 34 1.1 89 89 NNW 9 15 29.68 1005 7 11 0.02 0.51
11:53 am 11:53 Cloudy with Light Rain 37 2.8 35 1.7 93 93 NW 8 13 29.67 1005 8 13 0.03 0.76
12:16 pm 12:16 Cloudy with Light Rain 38 3.3 35 1.7 89 89 NW 10 17 29.68 1005 9 14 0.01 0.25
12:53 pm 12:53 Cloudy with Light Snow 36 2.2 34 1.1 93 93 NW 13 20 29.68 1005 5 8 0.04 1.02
1:53 pm 13:53 Cloudy 37 2.8 34 1.1 89 89 WNW 12 19 29.68 1005 10 16 0.01 0.25
2:53 pm 14:53 Cloudy with Light Rain 36 2.2 33 0.6 89 89 WNW 15 24 29.70 1006 5 8 0.01 0.25
3:05 pm 15:05 Cloudy with Light Snow 35 1.7 32 0 89 89 WNW 16 26 29.73 1007 2 3 0.00 0.00
3:24 pm 15:24 Cloudy with Light Snow 35 1.7 33 0.6 93 93 WNW 10 17 29.74 1007 4 6 0.01 0.25
3:53 pm 15:53 Cloudy 35 1.7 32 0 89 89 NW 14 22 29.72 1007 8 13 0.01 0.25
4:36 pm 16:36 Cloudy 35 1.7 31 -0.6 85 85 NW 18 30 29.79 1009 8 13 0.00 0.00
4:53 pm 16:53 Cloudy 35 1.7 31 -0.6 85 85 WNW 16 26 29.78 1008 7 11 0.00 0.00
5:22 pm 17:22 Cloudy 34 1.1 30 -1.1 85 85 WNW 12 19 29.80 1009 10 16 0.00 0.00
5:53 pm 17:53 Cloudy 34 1.1 30 -1.1 85 85 WNW 15 24 29.80 1009 10 16 0.00 0.00
6:07 pm 18:07 Cloudy 35 1.7 31 -0.6 85 85 WNW 15 24 29.83 1010 10 16 0.00 0.00
6:18 pm 18:18 Cloudy 35 1.7 31 -0.6 85 85 WNW 10 17 29.83 1010 10 16 0.00 0.00
6:53 pm 18:53 Mostly Cloudy 35 1.7 31 -0.6 85 85 WNW 13 20 29.79 1009 10 16 0.00 0.00
7:00 pm 19:00 Mostly Cloudy 35 1.7 31 -0.6 85 85 WNW 12 19 29.82 1010 10 16 0.00 0.00
7:11 pm 19:11 Partly Cloudy 35 1.7 31 -0.6 85 85 W 14 22 29.83 1010 10 16 0.00 0.00
7:53 pm 19:53 Clear 34 1.1 31 -0.6 89 89 W 15 24 29.82 1010 9 14 0.00 0.00
8:53 pm 20:53 Clear 33 0.6 30 -1.1 89 89 W 14 22 29.83 1010 9 14 0.00 0.00
9:53 pm 21:53 Clear 34 1.1 30 -1.1 85 85 W 15 24 29.84 1010 10 16 0.00 0.00
10:53 pm 22:53 Clear 33 0.6 30 -1.1 89 89 W 12 19 29.83 1010 10 16 0.00 0.00
11:53 pm 23:53 Clear 33 0.6 30 -1.1 89 89 W 10 17 29.84 1011 10 16 0.00 0.00

Powered by AerisWeather